Home > Weather > Heinsberg > Past weeks

Flag for Germany Past Weather in Heinsberg, North Rhine-Westphalia, Germany — Yesterday and Last 2 Weeks

Now
59 °F

Broken clouds.


Feels Like: 57 °F
Forecast: 54 / 70 °F
Wind: 10 mph from Southeast

Location: Geilenkirchen Airport

Current Time: May 31, 2016 at 10:03:16 AM

Latest Report: May 31, 2016 at 8:50 AM


Visibility: N/A

Pressure: 29.71 "Hg

Humidity: 88%

Dew Point: 55 °F

Location of HeinsbergLocation

Past Weather in Heinsberg — Graph

°F

Heinsberg Temperature Yesterday

Maximum temperature yesterday: 63 °F (at 3:50 PM)
Minimum temperature yesterday: 59 °F (at 12:50 AM)
Average temperature yesterday: 60 °F

High & Low Weather Summary for the Past Weeks

 TemperatureHumidityPressure
High73 °F (May 27, 4:50 PM)100% (May 23, 6:50 AM)30.12 "Hg (May 23, 6:50 AM)
Low46 °F (May 25, 1:50 AM)45% (May 17, 12:50 PM)29.59 "Hg (May 30, 5:50 PM)
Average57 °F78%29.90 "Hg
* Reported May 16 7:50 PM — May 31 7:50 AM, Heinsberg, Weather by CustomWeather, © 2016

Note: Actual official high and low records may vary slightly from our data, if they occured in-between our weather recording intervals... More about our weather records

Advertising

Heinsberg Weather History for the Previous 24 Hours

Scroll right to see more
 ConditionsComfort  
Time TempWeatherWind HumidityBarometerVisibility
7:50 AM
Tue, May 31
59 °FPartly sunny.12 mph88%29.68 "HgN/A
6:50 AM59 °FPartly sunny.10 mph88%29.68 "HgN/A
5:50 AM59 °FPassing clouds.12 mph88%29.65 "HgN/A
4:50 AM59 °FPassing clouds.10 mph88%29.65 "HgN/A
3:50 AM59 °FPassing clouds.13 mph88%29.62 "HgN/A
2:50 AM59 °FPassing clouds.12 mph94%29.62 "HgN/A
1:50 AM59 °FPassing clouds.9 mph94%29.62 "HgN/A
12:50 AM59 °FPassing clouds.8 mph100%29.62 "HgN/A
11:50 PM
Mon, May 30
61 °FFog.6 mph94%29.62 "Hg3 mi
10:50 PM63 °FFog.3 mph94%29.59 "Hg1 mi
9:50 PM61 °FSprinkles. Fog.6 mph100%29.59 "Hg1 mi
8:50 PM63 °FFog.9 mph94%29.59 "Hg1 mi
7:50 PM63 °FFog.9 mph94%29.62 "Hg2 mi
6:50 PM63 °FFog.9 mph94%29.59 "Hg1 mi
5:50 PM63 °FFog.10 mph100%29.59 "Hg1 mi
4:50 PM63 °FDrizzle. Fog.7 mph100%29.62 "Hg1 mi
3:50 PM63 °FFog.7 mph94%29.62 "Hg2 mi
2:50 PM61 °FFog.6 mph100%29.65 "Hg2 mi
1:50 PM61 °FPartly sunny.10 mph100%29.62 "Hg4 mi
12:50 PM59 °FRain. Fog.9 mph100%29.65 "Hg3 mi
11:50 AM59 °FRain. Fog.5 mph100%29.65 "Hg2 mi
10:50 AM61 °FLight rain. Fog.8 mph94%29.65 "Hg2 mi
Weather by CustomWeather, © 2016

See weather overviewHow to use our weather pages